Temperature
16 16 15 15 15 15 14 14 14 14 14 13 13 13 13 13 13 13 13 13 12 12 12 13 13 13 13 13 13 13 14 14 14 14 14 14 14 15 15 15 15 15 16
16 16 16 15 15 15 14 14 14 14 14 13 13 13 13 13 13 13 13 13 12 12 12 12 13 13 13 13 13 13 14 14 14 14 14 14 14 14 15 15 15 15 15
17 16 16 15 15 15 14 14 14 14 14 13 13 13 13 13 13 13 13 12 12 12 12 12 13 13 13 13 13 13 13 13 13 14 14 14 14 14 14 14 14 15 15
17 16 16 16 15 15 14 14 14 14 14 14 13 13 13 13 13 13 13 12 12 12 12 12 12 13 13 13 13 13 13 13 13 13 14 14 14 14 14 14 14 14 14
17 17 16 16 15 15 14 14 14 14 14 13 13 13 13 13 13 13 13 12 12 12 12 12 12 12 12 13 13 13 13 13 13 13 13 13 13 13 14 14 14 14 14
17 17 16 16 15 15 15 14 14 14 14 13 13 13 13 13 13 13 13 12 12 12 12 12 12 12 12 12 13 13 13 13 13 13 13 13 13 13 13 13 14 14 14
17 17 16 16 16 15 15 14 14 14 14 13 13 13 13 13 13 13 13 12 12 12 12 12 12 12 12 12 12 13 13 12 12 12 13 13 13 13 13 13 13 13 13
18 17 17 16 16 15 15 14 14 14 14 13 13 13 13 13 13 13 12 12 12 12 12 12 12 12 12 12 12 12 12 12 12 12 12 12 13 13 13 13 13 13 13
18 17 17 16 16 15 15 15 14 14 14 13 13 13 13 13 13 13 12 12 12 12 12 12 12 12 12 12 12 12 12 12 12 12 12 12 12 12 12 13 13 13 13
18 18 17 16 16 16 15 15 14 14 14 13 13 13 13 13 13 13 12 12 12 12 12 12 12 12 12 12 12 12 12 12 12 12 12 12 12 12 12 12 12 12 12
18 18 17 17 16 16 15 15 14 14 14 13 13 13 13 13 13 12 12 12 12 12 12 12 12 12 12 12 12 12 12 12 12 12 11 12 12 12 12 12 12 12 12
18 17 17 17 16 16 15 15 14 14 14 13 13 13 13 13 12 12 12 12 12 12 12 12 11 11 11 12 12 11 11 11 11 11 11 11 11 11 11 11 11 11 11
18 17 17 17 16 16 15 15 14 14 14 13 13 13 13 13 12 12 12 12 12 12 11 11 11 11 11 11 11 11 11 11 11 11 11 11 11 11 11 11 11 10 10
17 17 17 16 16 16 15 15 14 14 14 13 13 13 13 12 12 12 12 11 11 11 11 11 11 11 11 11 11 11 11 11 11 11 10 10 10 10 10 10 10 10 10
17 17 17 16 16 16 15 15 14 14 14 13 13 13 13 13 12 12 12 11 11 11 11 11 10 10 10 10 10 10 10 10 10 10 10 10 10 10 10 10 10 10 10
16 16 16 16 15 15 15 15 14 14 13 13 13 13 12 12 12 12 11 11 11 11 10 10 10 10 10 10 10 10 10 9 9 9 9 9 9 9 9 9 9 9 9
16 16 16 15 15 15 15 15 14 14 13 13 13 12 12 12 12 11 11 11 11 10 10 10 10 10 9 9 9 9 9 9 9 9 9 9 8 8 8 8 8 8 8
15 15 15 15 15 15 14 14 14 14 13 13 13 12 12 12 11 11 11 10 10 10 10 10 10 9 9 9 9 9 8 8 8 8 8 8 8 8 8 8 8 7 7
15 15 15 15 14 14 14 14 13 13 13 13 12 12 11 11 11 10 10 10 10 10 10 9 9 9 8 8 8 8 8 8 8 8 8 8 7 7 7 7 7 7 7
14 14 14 14 14 14 13 13 13 13 13 12 12 12 11 11 11 10 10 10 10 9 9 9 9 8 8 8 8 7 7 7 7 7 7 7 7 7 6 6 6 6 6
14 13 13 13 13 13 13 13 13 13 12 12 12 12 11 11 11 10 10 10 9 9 9 8 8 8 8 7 7 7 7 7 6 6 6 6 6 6 6 6 6 5 5
13 13 13 13 13 13 13 13 12 12 12 12 11 11 10 10 10 10 9 9 9 8 8 8 7 7 7 7 7 6 6 6 6 6 6 5 5 5 5 5 5 5 4
12 12 12 12 12 12 12 12 12 12 12 11 11 10 10 10 10 9 9 9 8 8 7 7 7 7 6 6 6 6 6 5 5 5 5 5 4 4 4 4 4 4 4
12 12 12 12 12 11 11 11 11 11 11 11 10 10 10 9 9 9 8 8 7 7 7 6 6 6 6 6 6 5 5 5 5 4 4 4 4 3 3 3 3 3 3
11 11 11 11 11 11 11 11 11 11 10 10 10 9 9 9 8 8 8 7 7 7 6 6 6 6 5 5 5 5 5 4 4 4 4 4 3 3 3 3 3 2 2
10 10 11 10 10 10 10 10 10 10 10 9 9 9 9 8 8 8 7 7 6 6 6 6 5 5 5 5 4 4 4 4 4 4 3 3 3 3 2 2 2 2 2
Wind_Speed
6 5 5 4 3 2 2 1 1 1 1 1 1 1 1 1 1 0 0 1 1 1 1 0 1 0 0 0 0 1 1 2 2 1 1 1 1 1 1 3 4 5 7
7 6 5 4 3 2 2 1 1 0 1 1 1 1 1 1 1 0 1 1 0 1 1 1 1 0 0 0 0 1 1 2 3 1 1 1 0 1 1 2 2 4 5
7 6 5 4 4 3 2 2 1 1 1 1 1 1 1 1 1 1 0 1 1 1 1 0 1 0 0 0 0 0 0 1 2 2 0 0 0 0 1 0 0 0 2
8 7 6 5 5 4 3 2 1 1 0 0 1 1 1 1 2 1 1 1 1 1 1 0 0 1 1 1 0 1 1 1 2 2 1 1 1 0 1 1 0 1 0
8 8 7 6 5 4 3 2 1 1 1 0 1 1 1 1 1 1 1 2 2 2 2 1 1 1 0 1 1 1 2 2 2 2 1 1 0 1 0 1 1 0 1
9 8 7 6 5 4 4 3 2 1 0 1 1 1 2 2 2 2 2 2 2 2 2 2 2 2 3 2 2 2 3 3 3 2 1 1 1 1 1 1 1 1 1
9 8 7 7 6 5 4 3 2 2 1 1 1 1 1 2 3 3 4 3 2 1 2 2 2 3 3 2 3 4 3 2 3 3 2 2 2 2 2 2 2 2 2
9 8 8 8 7 5 5 4 3 2 2 2 1 1 1 3 3 3 4 3 3 2 2 1 1 2 2 2 2 3 3 2 1 1 2 2 2 2 2 3 3 2 0
9 9 9 8 8 6 6 5 3 3 3 2 2 2 2 3 3 2 3 3 2 2 2 2 2 2 4 4 4 3 3 3 3 3 2 2 2 2 2 2 2 2 0
10 10 9 9 8 8 7 5 4 4 4 3 2 1 1 1 3 2 3 2 2 1 2 3 4 4 4 5 4 3 3 2 3 4 5 5 5 5 4 2 2 2 1
8 8 8 8 9 8 6 4 5 5 4 4 3 1 1 1 3 3 3 3 2 2 2 2 2 5 6 5 4 3 2 3 3 3 4 4 4 4 4 3 2 2 2
7 8 8 8 8 7 6 5 5 6 5 4 3 1 1 2 2 2 3 4 4 3 2 1 2 6 7 7 5 5 6 5 4 4 4 4 4 3 3 3 3 3 2
7 8 8 7 6 6 7 7 5 5 5 4 4 3 1 1 2 3 3 5 5 3 2 4 5 6 6 6 7 8 6 4 4 4 3 2 2 2 2 2 3 4 5
8 8 8 8 7 6 5 6 6 6 6 5 5 4 3 1 0 1 1 2 4 4 3 5 7 8 6 6 6 5 4 4 4 3 2 2 2 3 3 3 2 2 3
8 7 7 8 8 7 5 5 6 6 7 8 6 6 6 4 4 4 4 3 3 3 4 4 4 4 4 4 4 4 4 4 4 3 3 3 3 3 3 3 2 3 2
7 7 6 7 7 6 6 3 2 3 6 9 9 8 5 6 7 6 6 6 7 8 6 3 3 3 3 3 3 3 3 3 2 2 3 3 2 2 3 3 3 2 2
8 8 7 7 7 8 8 8 5 2 3 4 7 9 8 8 9 8 8 8 8 9 5 3 3 3 2 2 2 2 2 2 2 3 3 2 2 2 2 2 2 2 2
7 9 8 7 8 8 9 8 8 8 6 2 2 6 8 9 9 9 9 8 5 4 4 4 3 3 3 2 2 2 2 3 3 3 3 3 2 2 2 2 2 1 1
7 6 7 7 7 8 8 8 8 8 7 5 4 3 6 7 7 8 8 5 5 4 4 3 3 3 3 3 3 3 3 3 3 3 3 3 2 2 2 2 2 2 2
7 9 8 7 7 7 8 8 8 8 8 8 8 7 6 5 4 4 4 4 5 5 5 4 4 4 4 4 4 4 4 3 3 3 3 3 3 2 2 2 2 2 2
6 8 10 8 7 8 8 9 9 9 9 9 8 9 12 8 8 7 6 6 6 6 6 5 5 5 4 4 4 4 4 3 3 2 2 2 2 2 2 2 2 2 2
6 6 7 8 8 8 8 8 9 9 10 10 7 7 13 8 7 7 6 6 6 5 6 6 5 4 4 4 5 5 4 3 2 2 1 1 1 2 2 2 2 2 3
6 6 7 6 7 9 8 7 8 9 10 10 9 8 8 8 7 7 7 7 6 6 5 6 6 5 4 5 5 5 5 3 2 2 1 1 1 1 1 1 2 2 3
5 7 7 7 6 7 7 7 8 9 9 9 9 9 9 9 8 8 7 7 6 6 6 6 7 8 8 6 6 6 5 5 3 2 2 1 0 1 1 1 2 3 3
5 6 6 7 7 7 7 7 8 8 9 9 9 8 8 8 8 8 7 7 8 7 7 8 7 8 9 9 7 6 6 5 4 3 2 1 1 1 1 2 2 3 3
5 5 6 6 6 7 7 7 8 8 8 9 9 9 9 9 9 9 8 8 8 7 7 7 9 10 10 9 8 8 7 5 4 3 2 1 1 1 1 2 3 3 4
Wind_Direction
176 173 165 177 179 163 165 203 212 263 315 332 331 333 331 319 317 9 309 345 352 330 336 351 299 264 148 142 161 160 172 164 183 249 282 319 148 136 157 194 206 199 207
175 168 168 169 163 158 175 204 195 229 293 310 345 8 1 351 345 7 312 339 2 331 328 30 325 348 60 53 177 206 198 180 170 192 319 350 175 191 171 186 197 194 201
168 164 162 165 167 176 186 198 195 198 306 342 21 30 3 6 23 1 8 25 32 348 310 286 296 72 16 337 187 185 238 166 147 158 215 332 9 104 101 106 162 172 204
168 166 171 180 182 187 186 183 188 185 186 336 21 1 346 28 36 34 54 51 28 8 17 65 6 162 208 218 174 176 149 114 119 128 124 7 14 31 111 115 37 8 273
170 176 186 187 180 175 175 181 190 194 178 130 50 9 0 28 24 38 46 60 40 22 17 11 342 345 294 189 174 161 138 125 116 113 107 62 12 43 166 154 167 356 328
176 186 184 174 172 176 183 179 176 182 154 83 64 55 27 13 22 56 91 81 64 50 8 348 336 350 1 32 77 124 146 148 151 148 159 173 224 219 197 169 153 137 255
180 181 177 174 177 185 184 169 177 182 149 105 94 79 35 348 19 59 84 95 83 61 24 10 21 21 32 42 48 62 62 85 144 162 170 200 207 214 177 170 173 179 208
178 179 178 175 179 179 174 179 190 172 156 153 137 117 55 3 31 82 99 87 73 53 34 30 52 18 32 73 77 64 52 36 39 140 174 205 212 218 191 182 185 175 239
181 184 182 176 174 175 179 187 182 158 152 151 148 130 81 357 19 68 105 90 75 40 27 39 58 47 38 76 89 79 54 19 30 52 67 74 75 74 118 107 106 115 145
189 187 181 175 175 180 186 184 169 157 160 150 136 136 112 9 10 53 112 114 99 57 26 20 37 52 55 77 86 89 74 17 31 41 38 37 41 41 57 93 136 136 149
185 177 175 176 179 182 181 172 160 155 144 140 139 131 80 13 5 31 104 130 139 112 73 29 26 51 60 70 80 83 89 88 74 69 56 42 38 38 36 47 75 123 143
168 170 177 179 181 176 166 166 160 154 148 152 151 151 330 336 1 26 84 123 129 117 106 67 59 65 60 59 66 62 69 76 77 74 63 46 34 26 20 31 44 60 76
165 174 178 176 176 169 168 167 161 159 161 171 168 178 219 303 345 38 85 110 116 112 102 94 80 67 56 53 59 62 63 68 76 77 67 41 16 9 25 31 30 43 48
172 179 179 175 174 169 169 171 170 174 175 179 181 185 187 190 264 343 66 100 99 98 89 79 73 65 61 55 54 52 53 67 83 79 68 32 31 41 38 34 35 32 42
179 180 182 181 176 173 172 178 182 194 190 185 192 186 178 191 214 183 161 146 141 134 110 75 62 60 62 53 47 45 44 50 58 50 55 50 44 46 35 30 45 54 60
185 187 186 184 180 175 169 157 123 175 183 187 184 176 185 186 171 159 151 146 140 131 112 101 94 88 88 83 76 59 49 49 47 57 59 57 50 47 38 32 41 53 45
196 194 189 187 185 181 178 173 167 109 92 147 170 173 169 163 158 148 139 132 131 126 115 123 125 122 112 102 94 91 74 48 58 68 65 54 57 56 53 41 32 30 15
201 198 193 192 191 190 189 187 180 174 172 179 189 179 169 163 158 149 138 120 107 111 132 142 145 140 130 118 109 99 85 67 63 65 62 56 57 65 60 42 27 18 357
204 202 197 194 192 191 188 185 184 184 179 170 162 174 173 157 150 151 141 138 150 151 150 145 145 142 134 125 115 104 95 82 70 66 60 55 50 61 55 36 26 17 15
212 208 197 191 189 187 185 185 186 185 183 181 184 182 166 149 155 160 160 157 156 158 156 151 145 138 133 127 119 109 97 87 78 71 63 54 48 55 55 40 27 19 4
218 210 199 194 192 191 190 191 188 186 187 191 194 189 174 172 175 173 171 171 169 166 160 153 146 140 134 129 124 116 108 99 93 86 74 56 49 43 31 29 20 12 358
212 206 203 200 196 194 194 193 189 186 187 187 185 183 179 172 172 173 174 175 172 167 160 152 147 146 147 146 141 132 125 120 112 102 88 65 50 40 30 21 10 357 348
208 204 202 201 198 193 190 188 186 185 183 182 178 175 177 179 177 174 172 170 162 157 152 147 144 139 136 137 141 144 147 155 162 154 135 101 49 23 13 1 343 332 329
208 203 199 198 196 192 188 185 183 180 178 178 178 178 177 177 173 170 166 160 154 150 151 150 150 151 147 144 142 146 154 160 158 155 151 159 180 328 328 316 310 311 313
208 204 199 195 193 191 187 182 181 179 176 175 176 175 172 170 167 165 162 157 154 154 153 153 153 155 156 154 154 156 157 154 150 151 156 162 198 279 297 302 304 310 310
209 206 203 196 191 187 185 183 182 180 178 173 170 168 168 167 167 164 160 157 156 156 155 158 161 161 161 161 161 160 159 158 160 159 152 167 194 264 290 297 303 306 307
Height
1495 1495 1495 1495 1495 1495 1494 1493 1492 1491 1490 1488 1487 1486 1484 1483 1482 1481 1480 1479 1478 1478 1478 1478 1478 1478 1479 1480 1480 1481 1482 1483 1483 1484 1485 1486 1488 1489 1491 1493 1495 1497 1500
1493 1494 1494 1494 1494 1494 1493 1492 1492 1490 1489 1488 1487 1485 1484 1483 1482 1481 1480 1479 1478 1478 1477 1477 1477 1478 1478 1478 1479 1480 1480 1481 1482 1483 1484 1485 1486 1488 1490 1491 1493 1495 1497
1491 1492 1492 1493 1493 1493 1492 1492 1491 1490 1489 1487 1486 1485 1484 1483 1482 1481 1480 1479 1479 1478 1477 1477 1477 1477 1477 1478 1478 1479 1479 1480 1481 1482 1483 1484 1485 1487 1488 1490 1492 1493 1495
1489 1490 1490 1491 1491 1491 1491 1491 1490 1489 1488 1487 1486 1485 1484 1483 1482 1481 1480 1480 1479 1478 1477 1477 1477 1477 1477 1477 1477 1478 1479 1479 1480 1481 1482 1483 1484 1485 1487 1488 1490 1491 1493
1487 1488 1488 1489 1490 1490 1490 1490 1489 1488 1487 1486 1485 1484 1484 1483 1482 1481 1480 1480 1479 1478 1477 1477 1477 1476 1476 1476 1477 1477 1478 1478 1479 1480 1481 1482 1483 1484 1485 1486 1488 1489 1491
1484 1485 1486 1487 1488 1488 1488 1488 1488 1487 1487 1486 1485 1484 1483 1482 1482 1481 1480 1480 1479 1478 1478 1477 1477 1476 1476 1476 1476 1476 1477 1477 1478 1479 1480 1480 1481 1482 1483 1485 1486 1487 1488
1482 1483 1484 1485 1486 1486 1487 1487 1486 1486 1486 1485 1485 1484 1483 1482 1482 1481 1480 1479 1479 1478 1478 1477 1477 1476 1476 1476 1476 1476 1476 1477 1478 1478 1478 1479 1480 1481 1482 1483 1484 1485 1486
1479 1480 1481 1482 1483 1484 1484 1485 1485 1485 1485 1484 1484 1483 1483 1482 1481 1481 1480 1479 1479 1478 1478 1477 1477 1476 1476 1476 1476 1476 1476 1476 1476 1477 1477 1477 1478 1479 1480 1481 1482 1483 1484
1476 1477 1478 1480 1481 1482 1482 1483 1483 1483 1484 1483 1483 1483 1482 1482 1481 1480 1480 1479 1478 1478 1477 1477 1477 1476 1476 1476 1476 1476 1476 1476 1476 1476 1476 1476 1477 1477 1478 1479 1480 1481 1481
1473 1474 1476 1477 1478 1479 1480 1481 1481 1482 1482 1482 1482 1482 1481 1481 1480 1480 1479 1479 1478 1477 1477 1477 1476 1476 1476 1475 1475 1475 1475 1476 1476 1476 1476 1476 1476 1476 1477 1478 1478 1479 1479
1470 1471 1473 1474 1475 1476 1477 1478 1479 1480 1480 1481 1481 1481 1480 1480 1479 1479 1479 1478 1478 1477 1477 1476 1476 1476 1476 1475 1475 1475 1475 1475 1475 1475 1475 1475 1475 1475 1476 1476 1477 1477 1478
1467 1468 1469 1471 1472 1473 1474 1476 1477 1478 1478 1479 1479 1479 1479 1479 1478 1478 1478 1478 1477 1477 1477 1476 1476 1476 1475 1475 1475 1475 1475 1475 1474 1474 1474 1474 1474 1474 1475 1475 1475 1475 1476
1463 1464 1466 1467 1469 1470 1471 1473 1474 1475 1476 1476 1477 1477 1477 1477 1477 1477 1477 1477 1477 1476 1476 1476 1476 1476 1475 1475 1475 1474 1474 1474 1474 1474 1473 1473 1474 1474 1474 1474 1474 1474 1474
1460 1461 1462 1464 1465 1467 1468 1469 1470 1471 1472 1473 1474 1474 1475 1475 1475 1476 1476 1476 1476 1476 1476 1475 1475 1475 1475 1474 1474 1474 1474 1473 1473 1473 1473 1473 1473 1473 1473 1472 1472 1472 1472
1456 1457 1458 1460 1461 1463 1464 1465 1467 1468 1469 1470 1471 1472 1472 1473 1474 1474 1474 1474 1474 1475 1475 1475 1474 1474 1474 1474 1474 1473 1473 1473 1473 1473 1472 1472 1472 1472 1471 1471 1471 1470 1470
1451 1453 1454 1455 1457 1459 1460 1461 1463 1464 1466 1467 1468 1469 1469 1471 1471 1472 1472 1473 1473 1473 1473 1473 1473 1473 1473 1473 1473 1473 1473 1472 1472 1472 1472 1471 1471 1470 1470 1470 1469 1469 1468
1447 1448 1449 1451 1452 1454 1455 1457 1458 1460 1462 1463 1464 1465 1466 1468 1469 1469 1470 1471 1471 1471 1471 1471 1471 1471 1472 1472 1472 1472 1471 1471 1471 1471 1471 1470 1470 1469 1469 1468 1468 1467 1466
1442 1443 1444 1446 1447 1449 1450 1452 1454 1455 1457 1458 1460 1462 1463 1464 1465 1466 1467 1468 1468 1469 1469 1469 1469 1470 1470 1470 1470 1470 1470 1470 1470 1470 1469 1469 1468 1468 1467 1467 1466 1465 1464
1436 1437 1439 1440 1442 1443 1445 1447 1449 1451 1453 1454 1456 1457 1459 1461 1462 1463 1464 1465 1465 1466 1466 1467 1467 1468 1468 1468 1468 1468 1468 1468 1468 1468 1467 1467 1466 1466 1465 1464 1464 1463 1462
1430 1432 1433 1435 1436 1438 1440 1442 1444 1446 1448 1449 1451 1453 1455 1456 1458 1459 1460 1461 1462 1463 1464 1464 1465 1465 1466 1466 1466 1466 1466 1466 1466 1466 1465 1465 1464 1463 1463 1462 1461 1460 1459
1424 1426 1428 1429 1431 1432 1434 1436 1438 1440 1442 1444 1446 1448 1450 1452 1454 1455 1457 1458 1459 1460 1461 1462 1462 1463 1464 1464 1464 1464 1464 1464 1464 1463 1463 1462 1462 1461 1460 1459 1458 1457 1456
1419 1420 1421 1423 1424 1426 1428 1430 1432 1434 1436 1439 1441 1444 1446 1448 1450 1451 1453 1455 1456 1457 1458 1459 1460 1461 1461 1462 1462 1462 1462 1461 1461 1461 1460 1460 1459 1458 1458 1457 1456 1455 1454
1413 1414 1415 1417 1418 1420 1423 1424 1426 1428 1431 1433 1436 1439 1441 1443 1445 1447 1449 1451 1452 1454 1455 1456 1457 1458 1458 1459 1459 1459 1459 1459 1459 1458 1458 1457 1456 1456 1455 1454 1453 1452 1451
1407 1408 1409 1411 1413 1414 1416 1418 1421 1423 1425 1428 1431 1433 1436 1438 1440 1443 1445 1447 1449 1451 1452 1453 1454 1454 1455 1456 1456 1456 1456 1456 1456 1455 1455 1454 1454 1453 1452 1451 1450 1449 1448
1402 1403 1404 1405 1407 1409 1411 1413 1415 1418 1420 1423 1425 1428 1431 1433 1436 1438 1441 1443 1445 1447 1448 1450 1451 1451 1452 1452 1453 1453 1453 1453 1453 1452 1452 1451 1450 1450 1449 1448 1447 1445 1444
1396 1397 1399 1400 1402 1404 1406 1408 1410 1413 1415 1418 1420 1423 1426 1429 1432 1434 1436 1439 1441 1443 1445 1446 1447 1448 1449 1449 1449 1450 1450 1450 1449 1449 1448 1447 1447 1446 1445 1444 1443 1442 1440